Weather History for Wise, VA

Change the Weather History Date:

Saturday, January 11, 2014

  Actual Average Record
Temperature  
Mean Temperature 46 °F -  
Max Temperature 57 °F 39 °F 60 °F (2013)
Min Temperature 35 °F 23 °F 3 °F (1997)
Degree Days  
Heating Degree Days 19    
Moisture  
Dew Point 47 °F    
Average Humidity 91    
Maximum Humidity 100    
Minimum Humidity 70    
Precipitation  
Precipitation 0.84 in - - ()
Sea Level Pressure  
Sea Level Pressure 29.72 in    
Wind  
Wind Speed 12 mph (SW)    
Max Wind Speed 23 mph    
Max Gust Speed 30 mph    
Visibility 9 miles    
Events Rain , Thunderstorm    
Averages and records for this station are not official NWS values.
T = Trace of Precipitation, MM = Missing Value Source: NWS Daily Summary

Daily Weather History Graph

Daily Weather History Graph

Search for Another Location

Airport:

Trip Planner

Search our weather history database for the weather conditions in past years. The results will help you decide how hot, cold, wet, or windy it might be!

Date:

Astronomy

Jan. 11, 2014 Rise Set
Actual Time 7:43 AM EST 5:33 PM EST
Civil Twilight 7:14 AM EST 6:01 PM EST
Nautical Twilight 6:42 AM EST 6:33 PM EST
Astronomical Twilight 6:11 AM EST 7:05 PM EST
Moon 2:15 PM EST (1/11) 3:48 AM EST (1/11)
Length of Visible Light 10h 46m
Length of Day
9h 49m
Waxing Gibbous, 83% of the Moon is Illuminated
Jan 11
Waxing Gibbous
Jan 15
Full
Jan 24
Last Quarter
Jan 30
New
Feb 6
First Quarter

Hourly Weather History & Observations

Time (EST) Temp. Windchill Dew Point Humidity Pressure Visibility Wind Dir Wind Speed Gust Speed Precip Events Conditions
12:15 AM 53.6 °F - 53.6 °F 100% 29.93 in 7.0 mi South 11.5 mph - 0.01 in Rain Light Rain
12:35 AM 53.6 °F - 53.6 °F 100% 29.92 in 10.0 mi South 11.5 mph 17.3 mph 0.01 in   Light Drizzle
12:55 AM 53.6 °F - 53.6 °F 100% 29.91 in 10.0 mi South 12.7 mph 19.6 mph 0.01 in Rain Rain
1:15 AM 53.6 °F - 53.6 °F 100% 29.90 in 10.0 mi South 10.4 mph - N/A   Overcast
1:35 AM 53.6 °F - 53.6 °F 100% 29.89 in 10.0 mi South 10.4 mph - 0.01 in Rain Rain
1:55 AM 53.6 °F - 53.6 °F 100% 29.88 in 10.0 mi SSW 8.1 mph - 0.01 in   Overcast
2:15 AM 53.6 °F - 53.6 °F 100% 29.87 in 10.0 mi SSE 5.8 mph - N/A   Overcast
2:35 AM 53.6 °F - 53.6 °F 100% 29.86 in 10.0 mi SSE 4.6 mph - N/A   Overcast
2:55 AM 53.6 °F - 53.6 °F 100% 29.85 in 10.0 mi SSE 6.9 mph - N/A   Overcast
3:15 AM 53.6 °F - 53.6 °F 100% 29.83 in 10.0 mi SSE 9.2 mph - N/A   Overcast
3:35 AM 53.6 °F - 53.6 °F 100% 29.82 in 10.0 mi SE 3.5 mph - N/A   Overcast
3:55 AM 51.8 °F - 51.8 °F 100% 29.79 in 5.0 mi ESE 4.6 mph - N/A   Overcast
4:15 AM 51.8 °F - 51.8 °F 100% 29.77 in 10.0 mi SSE 12.7 mph 17.3 mph N/A   Overcast
4:35 AM 53.6 °F - 53.6 °F 100% 29.76 in 10.0 mi SSE 11.5 mph 17.3 mph N/A   Mostly Cloudy
4:55 AM 53.6 °F - 53.6 °F 100% 29.74 in 10.0 mi South 15.0 mph 20.7 mph N/A Rain Light Rain
5:15 AM 55.4 °F - 55.4 °F 100% 29.72 in 10.0 mi South 17.3 mph 25.3 mph N/A Rain Light Rain
5:35 AM 55.4 °F - 55.4 °F 100% 29.70 in 10.0 mi South 17.3 mph 26.5 mph N/A   Light Drizzle
5:55 AM 55.4 °F - 55.4 °F 100% 29.70 in 10.0 mi South 18.4 mph 26.5 mph N/A   Scattered Clouds
6:15 AM 55.4 °F - 55.4 °F 100% 29.68 in 10.0 mi South 18.4 mph 25.3 mph N/A   Scattered Clouds
6:35 AM 55.4 °F - 55.4 °F 100% 29.67 in 10.0 mi South 15.0 mph 27.6 mph N/A   Scattered Clouds
6:55 AM 55.4 °F - 55.4 °F 100% 29.64 in 10.0 mi SSE 12.7 mph 23.0 mph N/A Rain , Thunderstorm Light Thunderstorms and Rain
7:15 AM 57.2 °F - 57.2 °F 100% 29.62 in 10.0 mi SSE 13.8 mph 26.5 mph N/A   Mostly Cloudy
7:35 AM 55.4 °F - 55.4 °F 100% 29.69 in 7.0 mi West 15.0 mph 19.6 mph 0.08 in Rain Heavy Rain
7:55 AM 53.6 °F - 53.6 °F 100% 29.69 in 4.0 mi West 9.2 mph - 0.24 in Rain Rain
8:15 AM 53.6 °F - 53.6 °F 100% 29.71 in 7.0 mi SW 16.1 mph 27.6 mph 0.05 in Rain Light Rain
8:35 AM 53.6 °F - 53.6 °F 100% 29.70 in 7.0 mi SSW 12.7 mph 17.3 mph 0.09 in Rain Heavy Rain
8:55 AM 53.6 °F - 53.6 °F 100% 29.70 in 7.0 mi SW 12.7 mph - 0.16 in Rain Heavy Rain
9:15 AM 53.6 °F - 53.6 °F 100% 29.73 in 4.0 mi SW 15.0 mph 20.7 mph 0.11 in Rain Heavy Rain
9:35 AM 53.6 °F - 53.6 °F 100% 29.74 in 5.0 mi SSW 12.7 mph - 0.22 in Rain Heavy Rain
9:55 AM 53.6 °F - 53.6 °F 100% 29.74 in 7.0 mi SSW 9.2 mph - 0.29 in Rain Heavy Rain
10:15 AM 51.8 °F - 51.8 °F 100% 29.70 in 7.0 mi SSE 9.2 mph 17.3 mph 0.04 in Rain Light Rain
10:35 AM 51.8 °F - 51.8 °F 100% 29.70 in 10.0 mi South 8.1 mph - 0.05 in Rain Light Rain
10:55 AM 51.8 °F - 51.8 °F 100% 29.69 in 10.0 mi South 10.4 mph - 0.07 in Rain Light Rain
11:10 AM 51.8 °F - 51.8 °F 100% 29.68 in 10.0 mi SSE 5.8 mph - N/A Rain Light Rain
11:35 AM 51.8 °F - 51.8 °F 100% 29.66 in 7.0 mi South 5.8 mph - 0.03 in Rain Rain
11:55 AM 51.8 °F - 51.8 °F 100% 29.67 in 10.0 mi SSW 8.1 mph - 0.03 in   Overcast
12:15 PM 51.8 °F - 51.8 °F 100% 29.65 in 10.0 mi SW 18.4 mph 29.9 mph N/A   Overcast
12:35 PM 51.8 °F - 51.8 °F 100% 29.63 in 10.0 mi SW 19.6 mph 26.5 mph N/A   Mostly Cloudy
12:55 PM 51.8 °F - 51.8 °F 100% 29.62 in 10.0 mi SSW 16.1 mph 20.7 mph N/A   Mostly Cloudy
1:15 PM 51.8 °F - 51.8 °F 100% 29.63 in 10.0 mi SW 11.5 mph 21.9 mph N/A   Scattered Clouds
1:35 PM 51.8 °F - 51.8 °F 100% 29.61 in 10.0 mi SW 17.3 mph 26.5 mph N/A   Mostly Cloudy
1:55 PM 51.8 °F - 50.0 °F 94% 29.60 in 10.0 mi SW 23.0 mph 27.6 mph N/A   Scattered Clouds
2:15 PM 51.8 °F - 46.4 °F 82% 29.61 in 10.0 mi SW 19.6 mph 29.9 mph N/A   Scattered Clouds
2:35 PM 51.8 °F - 44.6 °F 76% 29.59 in 10.0 mi SW 15.0 mph 21.9 mph N/A   Scattered Clouds
2:55 PM 51.8 °F - 44.6 °F 76% 29.59 in 10.0 mi SW 15.0 mph 21.9 mph N/A   Scattered Clouds
3:15 PM 51.8 °F - 44.6 °F 76% 29.59 in 10.0 mi SW 17.3 mph 25.3 mph N/A   Scattered Clouds
3:35 PM 51.8 °F - 44.6 °F 76% 29.59 in 10.0 mi SW 16.1 mph 23.0 mph N/A   Mostly Cloudy
3:55 PM 50.0 °F - 44.6 °F 82% 29.59 in 10.0 mi SW 12.7 mph - N/A   Mostly Cloudy
4:15 PM 51.8 °F - 44.6 °F 76% 29.59 in 10.0 mi SW 15.0 mph 18.4 mph N/A   Overcast
4:35 PM 50.0 °F - 44.6 °F 82% 29.59 in 10.0 mi SW 11.5 mph 18.4 mph N/A Rain Light Rain
4:55 PM 48.2 °F - 44.6 °F 87% 29.60 in 7.0 mi WSW 15.0 mph 23.0 mph 0.03 in Rain Light Rain
5:15 PM 48.2 °F - 42.8 °F 82% 29.61 in 10.0 mi SW 15.0 mph 19.6 mph N/A   Scattered Clouds
5:35 PM 46.4 °F 42.4 °F 42.8 °F 87% 29.61 in 10.0 mi SW 8.1 mph - N/A   Clear
5:55 PM 46.4 °F 41.5 °F 41.0 °F 81% 29.62 in 10.0 mi West 10.4 mph - N/A   Scattered Clouds
6:15 PM 46.4 °F 40.1 °F 37.4 °F 71% 29.63 in 10.0 mi WNW 15.0 mph 21.9 mph N/A   Mostly Cloudy
6:35 PM 46.4 °F 41.9 °F 37.4 °F 71% 29.65 in 10.0 mi West 9.2 mph 20.7 mph N/A   Overcast
6:55 PM 46.4 °F 41.5 °F 37.4 °F 71% 29.66 in 10.0 mi West 10.4 mph 17.3 mph N/A   Overcast
7:15 PM 44.6 °F 38.4 °F 37.4 °F 76% 29.69 in 10.0 mi West 12.7 mph 23.0 mph N/A   Overcast
7:35 PM 44.6 °F 38.8 °F 35.6 °F 71% 29.70 in 10.0 mi West 11.5 mph 20.7 mph N/A   Overcast
7:55 PM 44.6 °F 38.1 °F 35.6 °F 71% 29.71 in 10.0 mi WNW 13.8 mph 21.9 mph N/A   Overcast
8:15 PM 42.8 °F 34.5 °F 35.6 °F 76% 29.72 in 10.0 mi West 18.4 mph 25.3 mph N/A Thunderstorm Thunderstorm
8:35 PM 42.8 °F 34.5 °F 33.8 °F 70% 29.73 in 10.0 mi WSW 18.4 mph 25.3 mph N/A   Mostly Cloudy
8:55 PM 42.8 °F 34.8 °F 33.8 °F 70% 29.74 in 10.0 mi WNW 17.3 mph 25.3 mph N/A   Mostly Cloudy
9:15 PM 41.0 °F 34.7 °F 33.8 °F 76% 29.75 in 10.0 mi West 10.4 mph 16.1 mph N/A   Mostly Cloudy
9:35 PM 41.0 °F 33.5 °F 33.8 °F 76% 29.77 in 10.0 mi West 13.8 mph 20.7 mph N/A   Mostly Cloudy
9:55 PM 39.2 °F 29.8 °F 32.0 °F 75% 29.78 in 10.0 mi West 18.4 mph 25.3 mph N/A   Overcast
10:15 PM 39.2 °F 30.5 °F 32.0 °F 75% 29.79 in 10.0 mi West 16.1 mph 23.0 mph N/A   Overcast
10:35 PM 37.4 °F 29.3 °F 32.0 °F 81% 29.81 in 10.0 mi West 12.7 mph 19.6 mph N/A   Overcast
10:55 PM 37.4 °F 29.3 °F 32.0 °F 81% 29.82 in 10.0 mi West 12.7 mph 20.7 mph N/A   Overcast
11:15 PM 37.4 °F 29.8 °F 32.0 °F 81% 29.83 in 10.0 mi West 11.5 mph 19.6 mph N/A   Overcast
11:35 PM 35.6 °F 29.2 °F 32.0 °F 87% 29.83 in 10.0 mi West 8.1 mph 16.1 mph N/A   Overcast
11:55 PM 35.6 °F 29.2 °F 32.0 °F 87% 29.84 in 10.0 mi West 8.1 mph - N/A   Overcast